Location: Buckland
(65.9785°N, 161.1281°W)
Time: 14:31:28
(UTC+00:00)

SPROUT - Pass Details

Date: 20 January 2021
Orbit: 597 x 609 km, 97.9° (Epoch: 05 March)

Event Time Altitude Azimuth Distance (km) Brightness Sun altitude
Exits shadow 07:29:38 10° 355° (N) 1,948 ? -33.5°
Drops below altitude 10° 07:29:43 10° 354° (N) 1,967 ? -33.5°
Sets 07:32:44 0° 331° (NNW) 2,886 ? -33.7°
